Overview Statistics Trail Chart Weather Telemetry Raw packets
 

This is the latest recevied weather packets stored in our database for station/object JH7UAX-10. If no packets are shown the sender has not sent any weather packets the latest 10 day(s).

<< 4 5 6 7 8 9 10 >>
Time Temp. Humidity Pressure Rain* Wind** Luminosity Snow
1788399854 22.78° C 93% 1021.9 hPa 0 mm - - -
1788398055 22.22° C 95% 1022 hPa 0 mm - - -
1788397154 22.22° C 96% 1021.9 hPa 0 mm - - -
1788396271 21.67° C 96% 1022.1 hPa 0 mm - - -
1788394455 21.67° C 97% 1022.1 hPa 0 mm - - -
1788393554 21.67° C 97% 1021.9 hPa 0 mm - - -
1788391754 21.67° C 98% 1021.5 hPa 0 mm - - -
1788390855 21.67° C 98% 1021.9 hPa 0 mm - - -
1788389954 21.67° C 98% 1022.4 hPa 0 mm - - -
1788389055 21.67° C 98% 1022.2 hPa 0 mm - - -
1788388155 21.67° C 98% 1022.5 hPa 0 mm - - -
1788387254 21.67° C 98% 1022.7 hPa 0 mm - - -
1788386354 21.67° C 98% 1022.6 hPa 0 mm - - -
1788385455 22.22° C 98% 1022.9 hPa 0 mm - - -
1788384553 22.22° C 98% 1022.9 hPa 0 mm - - -
1788383654 21.67° C 98% 1023.2 hPa 0 mm - - -
1788382756 21.67° C 98% 1023 hPa 0.25 mm - - -
1788381854 21.67° C 98% 1022.4 hPa 1.02 mm - - -
1788380953 21.67° C 98% 1022.2 hPa 1.78 mm - - -
1788380054 21.67° C 98% 1022.1 hPa 3.3 mm - - -
1788379154 21.67° C 98% 1022.4 hPa 4.06 mm - - -
1788378253 22.22° C 98% 1023 hPa 3.81 mm - - -
1788377356 22.22° C 98% 1023.2 hPa 3.3 mm - - -
1788376454 22.22° C 98% 1023 hPa 1.78 mm - - -
1788375554 22.78° C 98% 1022.7 hPa 0.76 mm - - -

* Rain latest hour (hover to see other rain measurements)
** Current wind speed in m/s (hover to see current wind gust speed)